sat.trackr.live / text

‹ back to catalog

STARLINK-36298

NORAD 68517 · 2026-068K

PAYLOAD ACTIVE UNKNOWN

§ Identity

Operator
Country
US
Launch date
2026-03-30
Launch site
AFETR
Launch vehicle
Mass (kg)
RCS (m²)

Purposes: comms

External: N2YO · Heavens-Above · Gunter

§ Orbital elements

Epoch: 2026-05-25T03:42:17.224128Z

Period
93.37 min
Inclination
53.1584°
Eccentricity
0.0001307
Mean motion
15.42211305 rev/d
Perigee alt
438.7 km
Apogee alt
440.5 km
Semi-major
6,817.7 km
B*
1.3080e-3
RAAN
134.0070°
Arg perigee
83.9604°
Mean anomaly
276.1551°
Rev number
865

§ Raw data

STARLINK-362981 68517U 26068K   26145.15436602  .00057030  00000+0  13080-2 0  99922 68517  53.1584 134.0070 0001307  83.9604 276.1551 15.42211305  8651

JSON: /api/v1/satellites/68517 · /tle

For live sub-satellite position, see the globe view (requires WebGL).

§ Visibility from observer

Set your observer location to see the next 7 days of passes ≥ 10°. The values pass through the URL so the page stays shareable.

No JS? Fill the form by hand. The geolocation button needs JavaScript.